Hourly Weather Ruzhino

Today, 18 April, Sunday

Time Temperature Precipitation Wind Pressure Humidity
00:00 +6°C° 0 mm 1 mps 752 mmHg 76%
01:00 +5°C° 0 mm 2 mps 751 mmHg 78%
02:00 +5°C° 0 mm 2 mps 751 mmHg 80%
03:00 +4°C° 0 mm 2 mps 751 mmHg 81%
04:00 +4°C° 0 mm 2 mps 751 mmHg 83%
05:00 +3°C° 0 mm 2 mps 751 mmHg 84%
06:00 +3°C° 0 mm 2 mps 751 mmHg 86%
07:00 +4°C° 0 mm 3 mps 751 mmHg 76%
08:00 +7°C° 0 mm 3 mps 751 mmHg 67%
09:00 +8°C° 0 mm 4 mps 751 mmHg 57%
10:00 +10°C° 0 mm 4 mps 750 mmHg 51%
11:00 +10°C° 0 mm 5 mps 750 mmHg 46%
12:00 +13°C° 0 mm 5 mps 749 mmHg 40%
13:00 +13°C° 0 mm 5 mps 748 mmHg 38%
14:00 +14°C° 0 mm 6 mps 747 mmHg 35%
15:00 +15°C° 0 mm 6 mps 747 mmHg 33%
16:00 +14°C° 0 mm 6 mps 747 mmHg 34%
17:00 +14°C° 0 mm 6 mps 746 mmHg 36%
18:00 +13°C° 0 mm 6 mps 746 mmHg 37%
19:00 +12°C° 0 mm 5 mps 746 mmHg 42%
20:00 +11°C° 0 mm 4 mps 747 mmHg 46%
21:00 +9°C° 0 mm 2 mps 747 mmHg 51%
22:00 +9°C° 0 mm 2 mps 747 mmHg 55%
23:00 +8°C° 0 mm 2 mps 747 mmHg 58%

Tomorrow, 19 April, Monday

Time Temperature Precipitation Wind Pressure Humidity
00:00 +7°C° 0 mm 2 mps 747 mmHg 62%
01:00 +7°C° 0 mm 2 mps 746 mmHg 63%
02:00 +7°C° 0 mm 2 mps 746 mmHg 65%
03:00 +6°C° 0 mm 2 mps 746 mmHg 67%
04:00 +6°C° 0 mm 2 mps 746 mmHg 68%
05:00 +7°C° 0 mm 1 mps 746 mmHg 69%
06:00 +7°C° 0 mm 1 mps 746 mmHg 70%
07:00 +8°C° 0 mm 2 mps 746 mmHg 62%
08:00 +10°C° 0 mm 2 mps 746 mmHg 54%
09:00 +12°C° 0 mm 3 mps 746 mmHg 46%
10:00 +14°C° 0 mm 4 mps 745 mmHg 41%
11:00 +15°C° 0 mm 5 mps 745 mmHg 36%
12:00 +16°C° 0 mm 6 mps 745 mmHg 31%
13:00 +17°C° 0 mm 6 mps 744 mmHg 29%
14:00 +19°C° 0 mm 6 mps 744 mmHg 27%
15:00 +19°C° 0 mm 6 mps 744 mmHg 24%
16:00 +19°C° 0 mm 5 mps 744 mmHg 26%
17:00 +19°C° 0 mm 5 mps 744 mmHg 27%
18:00 +18°C° 0 mm 4 mps 744 mmHg 29%
19:00 +15°C° 0 mm 5 mps 744 mmHg 34%
20:00 +14°C° 0 mm 5 mps 745 mmHg 39%
21:00 +11°C° 0 mm 6 mps 745 mmHg 44%
22:00 +9°C° 0 mm 7 mps 746 mmHg 41%
23:00 +8°C° 0 mm 7 mps 748 mmHg 38%

Day after tomorrow, 20 April, Tuesday

Time Temperature Precipitation Wind Pressure Humidity
00:00 +5°C° 0 mm 8 mps 749 mmHg 34%
01:00 +4°C° 0 mm 8 mps 750 mmHg 33%
02:00 +1°C° 0 mm 8 mps 752 mmHg 32%
03:00 0°C° 0 mm 8 mps 753 mmHg 30%
04:00 -1°C° 0 mm 8 mps 753 mmHg 32%
05:00 -1°C° 0 mm 7 mps 753 mmHg 33%
06:00 -2°C° 0 mm 6 mps 754 mmHg 34%
07:00 0°C° 0 mm 7 mps 754 mmHg 29%
08:00 +1°C° 0 mm 8 mps 754 mmHg 25%
09:00 +2°C° 0 mm 9 mps 754 mmHg 21%
10:00 +5°C° 0 mm 10 mps 754 mmHg 19%
11:00 +6°C° 0 mm 11 mps 754 mmHg 18%
12:00 +7°C° 0 mm 12 mps 754 mmHg 17%
13:00 +8°C° 0 mm 11 mps 753 mmHg 16%
14:00 +9°C° 0 mm 11 mps 753 mmHg 16%
15:00 +11°C° 0 mm 11 mps 753 mmHg 15%
16:00 +10°C° 0 mm 9 mps 754 mmHg 15%
17:00 +10°C° 0 mm 8 mps 754 mmHg 16%
18:00 +9°C° 0 mm 6 mps 755 mmHg 17%
19:00 +7°C° 0 mm 4 mps 756 mmHg 19%
20:00 +7°C° 0 mm 3 mps 756 mmHg 22%
21:00 +6°C° 0 mm 1 mps 757 mmHg 24%
22:00 +6°C° 0 mm 1 mps 757 mmHg 25%
23:00 +6°C° 0 mm 1 mps 758 mmHg 25%

21 April, Wednesday

Time Temperature Precipitation Wind Pressure Humidity
00:00 +5°C° 0 mm 1 mps 758 mmHg 26%
01:00 +4°C° 0 mm 2 mps 758 mmHg 27%
02:00 +4°C° 0 mm 2 mps 758 mmHg 28%
03:00 +4°C° 0 mm 2 mps 758 mmHg 30%
04:00 +4°C° 0 mm 2 mps 758 mmHg 33%
05:00 +4°C° 0 mm 2 mps 758 mmHg 35%
06:00 +4°C° 0 mm 2 mps 759 mmHg 38%
07:00 +7°C° 0 mm 2 mps 759 mmHg 35%
08:00 +9°C° 0 mm 2 mps 759 mmHg 32%
09:00 +13°C° 0 mm 2 mps 759 mmHg 29%
10:00 +14°C° 0 mm 3 mps 758 mmHg 26%
11:00 +17°C° 0 mm 3 mps 758 mmHg 23%
12:00 +18°C° 0 mm 3 mps 758 mmHg 21%
13:00 +19°C° 0 mm 3 mps 757 mmHg 20%
14:00 +19°C° 0 mm 3 mps 757 mmHg 19%
15:00 +20°C° 0 mm 3 mps 757 mmHg 18%
16:00 +19°C° 0 mm 3 mps 757 mmHg 20%
17:00 +19°C° 0 mm 2 mps 757 mmHg 22%
18:00 +18°C° 0 mm 2 mps 757 mmHg 24%
19:00 +18°C° 0 mm 1 mps 757 mmHg 25%
20:00 +15°C° 0 mm 1 mps 757 mmHg 26%
21:00 +14°C° 0 mm 1 mps 758 mmHg 27%
22:00 +13°C° 0 mm 1 mps 758 mmHg 28%
23:00 +12°C° 0 mm 1 mps 758 mmHg 29%

22 April, Thursday

Time Temperature Precipitation Wind Pressure Humidity
00:00 +12°C° 0 mm 1 mps 758 mmHg 31%
01:00 +11°C° 0 mm 1 mps 758 mmHg 33%
02:00 +11°C° 0 mm 1 mps 758 mmHg 34%
03:00 +9°C° 0 mm 2 mps 758 mmHg 36%
04:00 +10°C° 0 mm 1 mps 759 mmHg 38%
05:00 +10°C° 0 mm 1 mps 759 mmHg 39%
06:00 +10°C° 0 mm 1 mps 759 mmHg 41%
07:00 +13°C° 0 mm 1 mps 759 mmHg 36%
08:00 +16°C° 0 mm 1 mps 759 mmHg 31%
09:00 +18°C° 0 mm 2 mps 759 mmHg 27%
10:00 +21°C° 0 mm 1 mps 759 mmHg 24%
11:00 +23°C° 0 mm 1 mps 759 mmHg 21%
12:00 +25°C° 0 mm 1 mps 759 mmHg 18%
13:00 +25°C° 0 mm 1 mps 759 mmHg 18%
14:00 +26°C° 0 mm 1 mps 758 mmHg 17%
15:00 +26°C° 0 mm 1 mps 758 mmHg 16%
16:00 +25°C° 0 mm 1 mps 758 mmHg 19%
17:00 +24°C° 0 mm 2 mps 758 mmHg 22%
18:00 +23°C° 0 mm 2 mps 758 mmHg 25%
19:00 +19°C° 0 mm 3 mps 759 mmHg 30%
20:00 +17°C° 0 mm 4 mps 759 mmHg 35%
21:00 +13°C° 0 mm 5 mps 760 mmHg 40%
22:00 +12°C° 0 mm 5 mps 761 mmHg 42%
23:00 +10°C° 0 mm 5 mps 761 mmHg 43%

23 April, Friday

Time Temperature Precipitation Wind Pressure Humidity
00:00 +9°C° 0 mm 5 mps 761 mmHg 45%
01:00 +8°C° 0 mm 5 mps 762 mmHg 46%
02:00 +8°C° 0 mm 5 mps 762 mmHg 48%
03:00 +7°C° 0 mm 5 mps 762 mmHg 49%
04:00 +7°C° 0 mm 4 mps 762 mmHg 51%
05:00 +7°C° 0 mm 4 mps 762 mmHg 52%
06:00 +8°C° 0 mm 3 mps 762 mmHg 53%
07:00 +10°C° 0 mm 4 mps 762 mmHg 48%
08:00 +12°C° 0 mm 4 mps 762 mmHg 44%
09:00 +14°C° 0 mm 4 mps 762 mmHg 40%
10:00 +15°C° 0 mm 4 mps 761 mmHg 38%
11:00 +17°C° 0 mm 4 mps 761 mmHg 36%
12:00 +19°C° 0 mm 3 mps 761 mmHg 35%
13:00 +20°C° 0 mm 3 mps 761 mmHg 34%
14:00 +21°C° 0 mm 3 mps 760 mmHg 33%
15:00 +22°C° 0 mm 3 mps 760 mmHg 32%
16:00 +21°C° 0 mm 2 mps 759 mmHg 34%
17:00 +21°C° 0 mm 2 mps 759 mmHg 35%
18:00 +21°C° 0 mm 2 mps 759 mmHg 37%
19:00 +19°C° 0 mm 2 mps 759 mmHg 42%
20:00 +17°C° 0 mm 2 mps 759 mmHg 47%
21:00 +15°C° 0 mm 2 mps 759 mmHg 52%
22:00 +14°C° 0 mm 2 mps 759 mmHg 53%
23:00 +14°C° 0 mm 2 mps 759 mmHg 54%
Show more